Theta_e
302 302 302 303 304 305 306 306 307 308 309 309 310 310 310 310 310 311 311 311 311 311 311 311 311 311 312 313 314 314 314 314 314 313 313 313 313 314 314 314 314 315 315 315 315 316 317 318 318 319 320 320 321 321 321 321 321 321 322 322 322 322 322 323 323 324 324 325 325 325 324 324 324 323 324 324 324 324 323 322 321 320 321 321 321 321
299 299 300 300 301 302 303 304 305 306 307 307 308 309 309 309 309 309 309 309 309 310 310 310 310 311 312 313 313 314 314 314 313 313 313 313 313 313 313 313 314 314 314 315 315 315 316 316 317 318 319 319 320 320 320 320 320 320 320 321 322 322 322 322 323 323 324 325 325 324 324 323 323 323 323 323 323 323 321 320 319 319 320 320 320 320
298 299 299 299 300 300 301 301 302 303 304 305 306 307 308 308 309 309 309 310 310 310 310 310 310 311 312 313 313 314 313 313 313 312 312 312 312 312 312 312 313 313 314 314 314 315 315 315 316 317 317 318 319 320 320 320 320 320 320 320 320 321 322 322 322 323 323 323 323 322 322 322 322 322 322 322 322 321 319 318 318 318 319 320 320 320
298 298 298 298 299 299 299 299 300 300 301 302 302 303 305 306 307 309 309 310 310 310 310 310 311 312 312 313 313 313 313 312 312 312 312 311 311 311 311 311 311 312 313 314 314 314 314 315 315 316 317 317 318 319 319 320 320 320 320 319 319 320 321 321 322 322 322 321 321 321 321 321 321 320 320 320 320 319 318 317 317 318 319 319 319 319
296 296 296 296 296 297 297 298 298 299 299 300 301 301 302 303 305 306 308 309 310 311 311 311 311 312 312 313 313 312 312 312 312 311 311 311 311 310 310 309 310 310 312 313 313 314 314 315 315 316 316 317 317 318 318 319 319 320 320 319 319 319 319 319 319 319 320 320 320 320 320 320 320 319 319 319 318 318 317 317 317 318 318 319 319 319
294 294 294 294 295 295 296 296 297 297 298 299 299 300 301 302 303 304 305 307 308 310 311 311 312 312 312 312 312 312 312 311 311 311 311 310 310 310 309 309 309 309 310 312 313 314 314 314 315 315 316 316 317 317 317 318 318 318 318 318 318 318 317 317 317 317 318 318 318 319 320 319 319 319 318 318 317 317 317 317 318 318 318 318 318 318
293 293 294 294 294 295 295 295 296 296 297 297 298 299 299 300 301 302 303 304 305 307 309 310 311 312 312 312 311 311 311 311 310 310 310 310 309 309 308 308 308 308 309 311 312 313 314 314 314 315 315 316 316 316 317 317 317 317 317 317 317 317 317 316 316 316 316 316 317 317 318 318 318 318 318 317 317 317 317 317 318 318 318 318 318 318
294 294 294 294 294 294 295 295 295 295 296 296 297 297 298 299 299 300 301 302 303 305 307 308 310 311 311 311 311 310 310 310 309 309 309 309 308 308 307 307 307 307 308 310 311 312 313 314 314 314 315 315 316 316 316 316 316 316 316 316 317 317 317 316 316 316 316 316 316 317 317 317 317 317 317 317 317 316 316 317 317 317 317 317 317 317
294 294 294 294 294 294 294 294 294 294 295 295 295 296 296 297 298 299 300 301 302 303 304 306 307 309 309 309 309 309 309 309 308 308 308 308 307 307 307 307 307 307 308 309 310 311 312 313 313 314 314 314 315 315 315 316 316 316 316 316 316 316 317 317 317 317 317 317 317 317 317 317 317 317 317 316 316 316 316 316 317 317 317 317 317 317
293 293 294 294 294 294 294 294 294 294 294 295 295 295 296 296 297 297 298 299 300 302 303 305 306 307 308 308 308 308 308 308 308 308 308 308 307 307 307 307 307 307 307 308 309 310 311 312 313 313 313 314 314 315 315 315 315 315 315 316 316 316 316 316 316 317 317 317 317 317 317 317 317 317 316 316 315 315 315 316 316 316 316 316 316 316
292 292 293 293 293 293 294 294 294 294 294 295 295 295 295 296 296 297 298 299 300 301 302 304 305 306 307 307 308 308 308 308 308 308 308 308 307 307 307 307 307 307 307 308 308 309 310 311 312 312 313 313 313 314 314 314 314 315 315 315 315 315 316 316 316 316 316 316 316 316 316 316 316 316 316 315 315 315 315 315 315 315 315 315 316 316
291 291 292 292 292 293 293 293 293 294 294 294 294 295 295 296 296 297 298 299 300 301 302 303 304 305 306 307 307 307 307 307 307 307 307 307 307 307 307 308 308 308 307 307 308 308 309 310 311 311 312 312 313 313 313 313 314 314 314 314 314 315 315 315 315 315 315 315 315 316 316 316 315 315 315 314 314 314 314 314 315 314 314 315 315 316
290 290 291 291 291 292 292 292 293 293 293 293 294 294 295 295 296 297 298 299 300 301 302 303 304 305 306 306 306 307 307 307 307 307 307 307 307 307 307 308 308 308 307 307 307 307 308 309 310 311 311 311 312 312 312 313 313 313 313 313 314 314 314 314 314 315 315 315 315 315 315 315 315 314 314 314 314 314 314 314 314 314 313 314 314 315
290 290 290 290 290 291 291 291 292 292 292 293 293 293 294 294 295 295 296 297 298 299 300 301 302 303 304 305 305 306 306 306 306 306 306 306 306 307 307 307 308 308 308 307 307 307 307 308 309 310 310 311 311 311 311 311 312 312 312 312 313 313 313 314 314 314 314 314 314 314 314 314 314 314 314 313 313 313 314 314 314 314 313 313 314 315
290 289 289 290 290 290 290 291 291 291 292 292 293 293 293 294 294 294 295 295 296 297 298 299 300 302 303 304 304 305 305 305 305 305 305 306 306 306 307 307 308 308 308 308 307 307 307 307 308 309 309 310 310 310 310 310 310 311 311 311 311 312 312 313 313 313 313 313 313 314 314 314 314 314 314 313 313 313 313 313 314 313 313 313 313 314
290 290 289 289 289 289 289 290 290 291 291 292 292 292 293 293 293 293 294 294 295 295 296 297 299 300 302 303 304 304 304 304 304 305 305 305 306 306 307 307 308 308 308 308 308 307 307 307 307 308 308 308 308 309 309 309 309 309 309 310 310 311 311 312 312 312 312 313 313 313 313 313 314 314 314 313 313 313 313 313 313 313 312 312 312 313
290 290 290 289 289 289 289 289 290 290 291 291 292 292 292 293 293 293 293 293 294 294 295 296 298 300 302 303 304 304 304 304 304 304 305 305 306 307 307 308 308 308 308 308 307 307 307 307 307 307 307 307 307 307 307 307 307 307 308 308 309 310 310 310 311 311 312 312 312 312 312 313 313 313 313 313 313 312 313 313 312 312 312 311 311 312
290 290 290 290 290 289 289 289 289 290 290 290 291 292 292 293 293 293 293 293 294 294 295 296 297 299 301 302 303 303 303 302 302 302 303 304 305 306 306 307 307 307 307 307 307 307 307 307 306 306 306 306 306 306 306 306 306 306 307 307 308 308 309 309 310 310 311 311 311 311 312 312 312 313 313 313 313 313 312 312 312 312 311 311 311 311
290 290 291 290 290 290 290 290 290 289 289 290 290 291 292 292 293 293 293 293 293 294 295 295 296 297 298 300 300 301 301 300 299 299 300 301 302 303 304 305 306 306 306 307 307 307 306 306 306 306 306 305 305 305 306 306 306 306 306 307 307 308 308 308 309 309 309 310 310 310 311 311 311 312 312 312 312 312 312 312 312 311 310 310 310 311
288 289 289 290 290 290 290 290 290 290 289 289 290 290 291 292 292 293 293 293 293 294 294 294 295 295 296 297 297 297 297 297 297 297 297 298 299 300 301 303 304 305 305 305 306 306 306 305 305 305 305 305 305 305 306 306 306 306 306 307 307 307 307 308 308 308 308 308 309 309 310 310 311 311 311 312 312 312 312 311 311 311 310 310 310 311
287 287 287 288 288 288 289 289 289 289 289 289 290 290 290 291 291 292 292 293 293 293 293 293 294 294 294 295 295 295 295 294 295 295 296 297 297 298 299 300 302 303 304 304 305 305 305 305 305 305 305 305 305 305 306 306 306 306 306 306 307 307 307 307 307 308 308 308 308 308 308 309 309 310 310 311 311 311 311 311 311 310 310 310 310 310
287 287 287 287 287 287 287 288 288 289 289 289 289 290 290 290 291 291 292 292 292 292 292 292 293 293 293 293 293 293 293 293 293 294 295 296 296 297 298 299 301 302 303 303 304 304 305 305 304 304 304 305 305 305 305 306 306 306 306 306 306 307 307 307 307 307 307 307 307 307 307 308 308 309 309 310 310 310 310 310 310 310 310 309 310 310
287 287 287 287 287 287 287 288 288 288 289 289 290 290 290 290 291 291 291 292 292 292 292 292 292 292 292 292 292 292 292 292 293 293 294 295 295 296 297 298 300 301 302 303 303 304 304 304 304 304 304 304 304 305 305 305 306 306 306 306 306 306 306 306 307 307 307 307 307 307 307 307 307 308 308 309 309 310 310 310 310 310 309 309 309 310
288 288 288 288 288 288 288 288 288 288 289 289 290 290 290 290 291 291 291 291 291 291 292 291 291 291 291 292 292 292 292 292 292 292 293 293 294 295 296 297 299 300 301 302 302 303 303 304 304 304 304 304 304 304 304 304 305 305 305 305 306 306 306 306 306 306 306 306 307 307 307 307 307 307 307 308 308 309 309 310 310 310 309 309 309 309
289 289 289 289 289 289 289 289 289 289 289 290 290 290 291 291 291 291 291 291 291 291 291 291 291 291 291 291 291 291 291 291 291 291 292 293 293 294 294 296 297 299 301 301 302 303 303 303 303 304 304 304 304 304 304 304 304 304 304 304 305 305 305 305 305 305 305 305 306 306 306 307 306 306 306 306 307 308 308 309 310 309 309 308 308 309
289 289 289 289 289 289 289 289 290 290 290 290 290 290 290 291 291 291 291 291 291 291 291 290 290 290 290 290 290 290 290 290 290 291 292 292 293 293 294 294 296 298 299 301 302 303 303 303 303 303 303 303 303 303 303 303 303 303 303 303 304 304 304 304 304 304 304 304 305 305 305 306 306 306 305 305 306 306 307 308 309 309 308 308 308 309
288 289 289 288 288 288 288 288 289 289 289 289 290 290 290 290 291 291 291 291 291 291 290 290 290 290 290 290 290 290 290 290 290 291 292 292 293 293 294 294 295 296 298 300 301 302 302 303 303 303 303 303 303 303 303 303 303 303 303 303 303 303 303 303 303 303 303 303 304 304 304 304 305 305 304 304 305 305 306 307 308 308 308 308 309 310
288 288 288 288 288 288 287 288 288 288 289 289 289 289 289 290 290 291 291 291 291 291 291 291 291 290 290 290 290 290 290 290 290 291 292 293 293 294 294 294 295 296 297 298 300 301 302 302 302 302 303 303 302 302 302 302 302 302 302 302 302 302 303 303 303 303 303 303 303 303 303 303 303 303 303 303 304 305 306 307 307 308 308 309 309 310
287 287 287 287 287 287 287 287 287 287 288 288 289 289 289 290 290 291 291 291 291 291 291 291 291 291 290 290 290 290 290 290 290 291 291 292 293 293 294 294 295 296 297 298 298 299 300 301 301 302 302 302 302 302 302 302 302 302 302 302 302 302 302 302 303 303 302 302 302 302 302 302 302 302 302 303 304 305 306 307 307 308 308 309 310 310
288 288 287 287 287 287 287 287 287 287 287 288 288 289 289 290 290 291 291 291 291 291 291 291 291 291 291 291 290 290 290 290 291 291 292 292 293 293 294 295 296 296 297 297 298 298 299 299 300 300 301 301 301 301 301 301 302 302 302 301 301 301 301 302 302 302 302 302 302 302 302 302 302 302 302 303 304 305 306 307 307 308 309 309 310 310
288 288 288 288 287 287 287 287 287 287 287 287 287 288 288 289 289 290 291 291 291 291 291 291 291 291 291 291 291 291 292 292 292 292 293 294 294 295 295 296 296 297 297 297 298 298 298 298 298 299 299 300 300 300 301 301 302 302 301 301 301 301 301 301 301 301 302 302 301 301 302 302 303 303 303 303 304 305 306 307 308 308 309 309 309 309
288 288 288 288 288 288 287 287 287 287 287 287 287 287 287 287 288 289 290 290 291 291 291 291 292 292 292 292 292 292 293 293 293 294 294 294 294 294 295 296 296 297 297 297 297 297 297 297 298 299 299 299 300 300 301 301 301 301 301 300 300 300 300 300 300 300 301 301 301 301 302 302 303 303 304 304 305 306 306 307 308 308 309 309 309 308
288 288 288 288 288 288 288 287 287 287 287 287 287 287 288 288 288 288 288 289 290 290 291 291 291 292 292 292 292 292 292 293 293 293 293 292 292 293 293 294 295 296 296 297 297 298 298 297 298 299 299 300 300 300 301 301 301 300 300 299 299 299 300 300 300 300 300 300 301 301 302 302 303 304 305 305 306 306 307 307 308 308 308 308 308 308
288 287 288 288 288 288 287 287 287 288 288 288 289 289 289 289 289 289 288 289 289 289 290 290 291 291 292 292 292 292 292 292 293 293 292 292 292 292 293 293 294 294 295 296 297 297 298 298 298 299 299 299 299 300 300 300 300 300 300 300 300 300 300 300 299 299 300 300 301 301 302 303 304 305 306 306 306 307 307 308 308 308 308 308 308 307
287 288 288 288 288 288 288 288 288 289 289 289 289 289 289 289 289 289 289 289 289 289 289 290 290 290 291 291 291 292 292 292 292 292 292 292 292 292 292 292 293 293 294 294 295 296 297 297 298 298 299 299 299 299 300 300 300 300 300 300 300 300 300 300 299 299 300 301 301 302 303 303 304 305 306 307 307 307 307 308 308 308 308 308 308 307
288 288 288 288 288 288 289 289 289 289 289 289 289 289 289 289 288 288 288 288 289 289 289 289 290 290 291 291 290 291 291 291 292 292 292 292 292 292 292 292 292 292 292 293 294 295 295 296 297 297 298 298 298 299 299 300 300 300 300 300 300 300 300 300 300 299 300 301 302 303 303 304 305 306 307 307 307 308 308 308 308 308 308 308 307 307
288 288 288 288 288 288 288 288 288 288 288 288 288 288 288 288 288 288 288 289 289 290 290 290 290 290 290 290 290 291 291 291 292 292 292 292 292 292 292 292 292 292 292 292 292 293 294 295 295 296 296 296 297 298 299 299 299 299 300 300 300 300 300 300 300 300 300 301 302 303 304 305 305 306 307 307 308 308 308 308 308 308 308 308 307 307
288 288 287 287 287 287 287 287 288 287 287 287 287 287 287 287 288 288 289 289 290 290 291 291 291 290 290 290 290 291 291 291 291 291 291 292 292 291 291 291 291 291 291 291 291 292 293 293 294 295 295 295 296 297 298 298 298 298 299 299 300 300 300 300 300 300 301 301 302 303 304 305 305 306 307 307 307 307 307 307 308 308 307 307 307 306
287 287 287 287 287 287 287 287 287 287 287 287 287 287 287 288 288 288 289 289 290 290 290 290 290 290 290 290 290 290 290 290 290 290 290 290 290 290 290 291 290 290 290 290 291 291 292 292 293 294 294 295 296 296 296 297 297 298 298 299 299 299 299 300 300 300 301 301 302 303 304 305 305 306 307 307 307 306 306 306 306 306 306 305 305 304
287 286 287 287 287 287 287 288 287 287 287 287 287 287 287 288 288 288 288 288 288 288 289 289 289 289 289 289 289 289 289 289 289 289 289 289 289 289 289 290 290 290 290 290 290 291 291 292 292 293 293 294 295 295 296 297 297 297 297 298 298 299 299 299 300 300 300 301 302 302 303 304 305 306 306 306 306 306 305 305 305 305 304 304 303 302
287 287 287 287 287 287 288 288 287 287 287 287 287 287 287 287 287 287 288 288 287 287 288 288 288 289 289 289 289 289 289 289 289 289 289 289 289 289 289 289 289 289 289 290 290 290 291 291 292 292 293 293 294 294 295 296 297 297 297 297 297 298 298 299 299 299 300 300 301 302 302 303 304 305 305 305 305 305 305 304 304 304 303 303 302 301
287 287 287 287 287 287 287 287 287 287 286 286 287 287 287 287 287 287 287 287 287 287 287 287 288 288 289 289 289 289 289 289 289 289 289 289 289 289 289 289 289 289 289 290 290 290 291 291 292 292 292 293 293 294 294 295 296 297 297 297 297 297 298 298 299 299 300 300 301 301 302 302 303 304 304 304 304 304 304 304 303 303 302 302 302 302
287 287 287 287 287 287 287 287 286 286 286 287 287 287 287 287 286 286 287 287 287 287 287 287 288 288 288 288 288 288 288 287 288 288 288 289 290 290 290 290 290 290 290 290 290 290 291 291 292 292 292 292 293 294 294 294 295 296 297 297 297 297 297 298 298 299 299 300 300 301 301 301 302 302 303 303 303 303 302 302 302 302 301 301 301 301
286 286 286 286 286 286 286 286 286 286 287 287 287 287 287 287 287 287 287 287 287 287 287 287 287 287 288 288 288 288 288 288 288 288 288 289 290 290 290 291 291 291 291 291 290 291 291 292 292 292 292 293 293 294 294 294 295 296 297 297 298 297 298 298 298 298 298 298 299 300 300 301 301 301 301 301 301 301 301 301 301 301 300 300 300 300
285 285 285 285 285 285 286 286 286 287 287 287 287 286 286 286 286 286 286 286 286 286 286 286 286 287 287 287 287 287 288 288 288 288 288 289 289 290 290 290 291 292 292 292 291 292 292 292 292 292 293 293 294 294 295 295 296 296 297 298 298 298 298 298 298 298 298 297 298 298 300 300 300 300 300 300 300 300 300 300 300 300 300 300 300 300
285 285 285 285 285 286 286 286 286 286 286 286 286 285 285 285 285 285 285 285 286 286 286 286 286 286 287 287 287 287 287 287 287 287 287 288 288 288 289 290 290 291 292 292 292 292 292 293 293 293 293 294 294 295 295 295 296 297 297 297 297 297 298 298 298 298 298 297 298 298 299 300 300 299 299 298 298 299 299 299 299 299 299 299 299 299
284 284 285 285 286 286 286 286 286 285 285 285 285 284 284 285 285 285 285 285 285 285 285 286 286 286 286 286 286 286 287 287 287 287 287 287 288 288 288 289 290 290 291 292 292 293 293 293 293 293 294 294 294 294 294 295 295 296 297 297 297 297 297 297 298 298 298 297 298 298 299 299 299 299 298 298 297 297 298 298 298 298 298 298 298 299
283 283 284 285 286 286 286 285 285 284 284 284 284 284 284 284 284 284 285 285 285 285 285 285 286 286 286 286 286 287 287 287 287 287 288 288 288 288 288 289 289 290 291 292 292 292 292 293 293 293 293 294 294 293 293 293 294 294 295 296 297 297 297 297 297 297 297 297 297 298 298 298 298 298 297 297 297 297 297 297 297 297 297 297 298 298
281 282 283 284 285 285 284 284 284 284 284 284 284 284 284 284 284 284 284 285 285 285 285 285 285 286 286 286 287 287 287 287 288 288 288 288 288 288 288 289 289 290 291 291 291 292 292 292 292 292 293 293 293 293 293 293 293 294 294 295 296 297 297 297 297 297 297 297 297 297 298 298 298 298 297 297 296 296 296 296 296 296 296 296 297 297
281 281 282 283 283 283 283 283 284 284 283 284 284 284 284 284 284 284 284 284 284 284 284 285 285 285 286 286 287 287 287 287 287 288 288 288 288 289 289 289 290 291 291 292 292 292 292 292 292 291 291 292 292 292 293 293 293 293 294 295 295 296 297 297 297 297 297 297 297 297 298 298 298 298 297 297 296 296 295 295 295 295 295 295 296 296
280 280 281 281 282 282 282 283 283 283 283 284 284 284 284 284 284 284 284 284 284 284 284 285 285 285 286 286 287 287 287 287 287 288 288 289 289 290 290 290 290 291 291 292 292 292 292 292 292 292 292 291 291 292 292 292 293 293 294 294 295 296 296 297 297 297 297 297 297 297 297 297 297 297 297 297 296 296 295 295 294 294 295 295 295 295
Wind_Speed
24 24 25 25 25 25 25 24 25 26 28 29 30 31 32 33 35 35 36 36 36 36 36 35 34 32 31 30 29 28 28 27 27 27 26 26 25 25 24 24 24 24 24 23 22 22 22 24 25 27 28 28 29 28 26 24 24 24 25 27 28 28 28 28 28 28 28 28 29 29 29 29 29 29 28 27 27 26 25 24 24 24 25 25 24 24
25 25 25 25 25 25 26 26 25 26 27 28 29 29 30 32 35 36 37 38 38 38 37 36 35 34 32 30 29 27 26 26 26 26 25 25 24 24 24 24 24 24 24 24 23 22 22 23 24 25 26 28 29 29 28 27 26 24 23 23 25 26 27 27 27 26 26 27 28 27 27 28 29 28 28 27 27 26 25 24 24 25 25 25 24 24
24 24 25 24 24 25 26 26 26 27 27 28 28 28 29 30 32 33 34 35 36 36 36 36 35 33 31 29 27 25 24 24 25 25 25 25 25 25 24 24 24 25 25 25 24 23 22 22 23 24 25 26 28 29 29 30 30 28 26 23 22 23 24 24 24 24 26 26 26 26 25 27 27 27 27 26 26 25 25 24 25 25 26 25 24 24
24 24 25 24 24 25 26 27 27 28 28 29 29 30 30 30 30 30 31 32 33 33 33 33 32 31 29 28 26 25 24 24 24 25 26 27 27 27 26 26 26 26 26 26 25 24 24 23 23 24 25 26 27 28 29 30 32 32 31 28 25 23 22 22 22 23 25 25 25 25 25 25 26 26 26 25 25 25 25 25 25 26 26 25 25 24
25 24 25 25 25 26 27 27 27 28 29 30 31 31 31 30 30 29 29 30 30 31 31 30 30 29 28 27 26 25 24 24 24 25 26 27 28 29 29 29 28 28 27 27 26 26 25 25 25 25 25 26 26 27 28 29 31 32 33 33 31 29 26 24 23 23 24 25 25 24 25 25 25 25 25 25 25 26 26 25 26 26 26 26 25 25
26 26 26 25 26 26 27 27 27 27 28 29 30 30 30 30 30 29 29 29 29 30 30 30 30 29 29 28 27 27 26 25 25 26 27 28 29 30 31 31 31 30 29 28 27 27 27 26 26 26 27 27 27 27 27 28 29 30 31 32 32 32 30 29 27 26 25 25 25 25 25 25 26 26 26 26 26 26 26 26 25 25 26 26 26 25
28 27 26 26 26 26 26 27 27 26 26 27 28 29 29 30 30 30 30 30 29 30 30 30 31 31 31 31 30 30 29 28 28 27 27 28 30 31 32 32 32 31 30 29 28 28 28 28 28 28 28 28 27 27 27 27 27 28 29 29 30 30 31 30 29 28 28 27 27 27 27 27 27 27 27 27 27 27 26 26 26 26 26 26 26 26
28 28 27 26 26 26 27 27 27 26 26 27 27 28 28 29 29 30 30 30 30 30 30 30 31 32 32 32 32 32 31 30 29 29 28 29 30 31 31 31 31 30 30 29 29 28 28 28 29 29 29 28 28 28 27 27 27 27 27 28 28 28 29 29 29 29 28 28 28 28 28 29 29 29 29 28 28 27 27 27 27 27 26 26 26 25
27 27 27 26 26 26 26 27 27 26 26 26 27 27 27 28 28 29 29 30 30 29 29 29 30 31 32 32 32 32 31 30 29 28 28 28 29 29 29 29 28 28 28 28 28 28 29 29 30 29 29 29 28 28 28 28 28 28 28 28 28 28 28 29 29 29 29 29 29 29 30 30 30 30 30 29 28 28 28 28 28 27 26 25 25 25
26 26 27 27 26 25 25 26 26 26 25 26 27 27 27 27 28 28 28 29 29 28 28 28 28 29 29 30 30 29 29 29 28 27 27 27 27 27 27 27 26 26 26 26 27 28 29 30 30 30 30 29 29 28 28 28 29 29 29 29 29 29 29 29 29 29 29 30 30 30 30 30 30 30 29 29 28 28 28 29 29 28 27 25 25 24
25 25 26 26 26 25 24 25 25 25 25 26 27 28 27 26 26 25 26 27 28 28 28 28 28 27 27 27 27 26 26 26 26 26 26 26 26 26 26 26 26 25 25 25 25 26 27 29 30 31 31 30 29 29 28 28 29 29 29 29 29 29 29 29 29 29 29 30 30 30 30 30 30 29 29 28 28 28 29 29 29 29 27 26 24 24
24 24 24 25 25 24 24 25 26 26 25 24 24 24 23 23 23 23 24 25 25 26 27 27 28 27 27 26 26 25 24 24 24 24 25 25 25 25 26 26 26 26 25 25 24 25 26 28 30 31 32 31 31 30 29 29 29 29 29 29 29 29 29 29 29 29 29 29 29 29 29 29 29 29 28 28 28 29 29 29 29 28 27 26 25 24
23 24 24 25 25 25 24 25 25 24 22 21 20 20 21 22 22 22 23 24 24 24 24 25 26 27 27 28 27 26 25 25 26 26 26 27 26 26 26 27 27 27 26 25 25 25 25 27 28 30 31 32 31 30 30 29 29 29 29 29 29 29 29 29 28 28 28 28 28 28 28 28 28 28 28 28 29 29 30 29 29 28 27 26 26 25
22 23 23 23 24 24 24 24 23 23 22 22 22 22 23 23 24 24 24 24 24 24 24 24 24 24 24 25 26 26 26 27 27 27 28 28 28 27 27 27 27 28 27 26 26 26 26 26 28 29 31 31 31 31 30 30 30 30 30 30 30 30 30 29 29 29 28 28 28 28 28 28 28 28 29 29 29 30 30 30 29 28 27 27 27 27
21 21 20 20 21 22 23 23 23 23 24 24 24 24 25 26 25 25 24 24 24 24 23 23 23 22 20 20 22 24 25 27 27 26 27 28 28 28 27 27 27 27 27 27 27 27 27 27 28 29 30 30 30 30 30 31 31 31 32 32 32 31 31 31 31 30 30 29 29 29 29 29 29 29 29 29 30 30 30 30 29 29 28 28 28 29
20 19 18 19 20 22 23 23 24 24 25 25 25 25 25 25 25 24 23 24 24 23 21 20 18 17 17 16 16 17 20 22 24 25 26 27 28 28 28 28 28 27 27 27 28 28 27 27 27 28 28 29 29 29 30 31 31 32 32 33 33 33 33 33 33 32 32 32 31 31 30 30 30 30 30 30 30 30 31 30 30 29 29 29 29 29
19 19 19 20 21 22 24 24 24 25 26 26 26 25 25 25 25 24 24 24 23 20 18 15 9 6 9 12 13 12 13 15 17 19 22 23 25 26 27 29 29 28 29 29 28 28 27 27 27 27 27 27 28 28 29 30 30 31 32 33 33 34 34 35 35 35 34 34 33 33 32 32 31 31 31 31 31 31 31 31 31 30 30 30 30 30
19 20 20 20 21 22 23 23 24 25 25 26 26 26 26 25 25 24 23 22 20 18 16 14 10 6 5 8 11 13 15 19 20 19 18 18 19 19 21 25 28 29 29 29 29 28 27 26 26 26 26 27 27 28 28 28 29 30 30 31 32 33 34 35 36 36 36 36 36 35 34 34 33 33 33 33 32 32 32 32 31 31 31 30 30 30
20 19 19 20 22 23 23 22 23 24 24 25 25 26 25 25 24 22 22 21 20 18 16 13 12 12 11 13 15 18 21 24 23 20 19 18 19 20 17 19 22 25 26 27 28 28 27 26 26 26 26 27 27 27 27 27 28 28 28 29 30 31 32 33 35 36 37 38 38 37 37 36 36 35 35 35 34 34 33 33 32 32 31 31 30 31
23 23 22 22 23 24 24 25 25 25 25 26 27 26 26 25 23 22 21 21 21 20 19 16 15 15 15 17 19 22 25 27 26 23 20 20 20 22 21 19 18 19 20 23 25 26 26 26 26 26 26 26 26 27 27 27 27 27 27 27 28 28 29 30 32 33 35 37 38 38 38 38 38 38 37 37 36 35 34 34 33 32 31 31 31 31
25 25 25 25 25 26 27 28 28 27 28 29 29 28 27 26 23 21 20 20 20 20 20 18 18 17 17 17 20 24 27 27 25 23 22 22 23 23 22 21 20 20 19 20 22 24 25 26 26 26 26 26 26 26 26 26 26 27 27 27 27 27 27 28 29 30 32 34 36 37 38 39 39 39 39 38 38 36 35 34 33 33 32 32 32 32
26 26 27 26 26 27 29 30 30 30 30 30 29 28 27 26 24 22 21 19 18 18 19 19 20 21 21 22 25 27 28 27 25 23 21 19 22 25 23 20 19 19 19 20 20 22 23 25 26 27 27 27 27 27 27 27 27 27 27 27 27 27 27 27 27 28 29 30 32 34 36 37 39 40 40 40 39 38 36 35 34 33 33 32 33 33
28 28 29 28 28 28 30 31 31 30 30 30 30 29 28 27 27 26 24 22 20 20 20 21 23 24 26 27 28 29 29 28 26 23 21 14 18 24 23 21 19 18 18 20 21 22 23 25 27 27 28 28 28 28 28 28 28 28 28 28 28 28 28 28 27 28 28 28 29 31 32 34 36 38 39 40 39 39 37 36 35 34 33 33 33 34
27 28 28 28 28 28 29 29 29 29 28 28 29 29 30 30 30 30 28 26 24 23 23 23 23 24 26 27 27 28 30 30 29 25 22 18 20 23 24 22 20 19 19 20 21 22 24 25 27 28 29 29 29 28 28 28 28 28 28 28 29 29 29 29 28 28 28 28 28 29 30 31 33 35 37 39 39 39 38 37 35 34 33 33 33 34
28 29 28 28 28 28 29 29 29 29 29 28 27 28 28 29 29 30 30 29 28 26 25 24 22 22 23 24 25 27 30 30 27 25 22 20 22 24 25 24 21 20 19 19 19 20 22 23 25 26 28 29 29 28 27 26 26 27 27 28 29 29 29 29 29 29 29 29 29 29 29 29 31 33 35 37 38 38 38 37 36 34 33 33 33 33
30 31 31 32 32 32 32 32 32 32 31 30 29 29 27 27 27 27 26 27 26 26 24 21 19 19 22 22 23 26 28 27 26 24 23 20 20 22 24 24 22 20 20 18 18 18 19 20 22 23 25 27 27 26 24 24 24 25 26 26 27 28 29 29 29 29 29 29 30 30 29 29 30 31 32 34 36 37 37 37 35 34 33 32 31 32
30 31 32 32 33 33 33 32 32 32 32 31 31 30 29 28 27 25 23 23 23 23 22 16 12 13 18 19 21 24 26 25 25 24 23 21 19 20 23 23 22 21 21 19 18 18 19 19 20 21 22 23 23 22 21 22 22 23 24 25 25 26 27 28 29 29 29 30 30 30 30 30 30 30 31 32 34 35 36 36 35 33 32 31 31 31
30 30 31 32 33 34 34 33 33 32 31 31 30 29 28 28 26 23 21 21 22 22 20 14 9 8 10 14 19 23 24 24 25 24 23 20 17 18 22 22 22 22 21 20 19 19 19 19 20 21 21 20 19 19 20 21 22 23 24 24 24 24 24 25 27 28 29 30 30 30 30 30 30 29 30 31 32 34 35 35 34 32 31 31 31 32
30 31 32 34 34 35 35 34 33 32 31 30 29 27 26 25 24 23 23 23 22 21 19 18 15 12 12 16 20 22 23 24 25 25 22 19 18 20 22 21 21 21 20 18 17 17 18 19 20 20 20 20 20 20 21 23 24 25 25 25 25 25 24 24 24 26 27 29 29 30 30 30 29 29 28 29 31 32 34 34 33 32 31 31 32 32
31 32 33 34 34 34 34 33 32 31 29 28 27 26 25 25 25 25 25 25 22 20 18 17 16 15 15 15 14 14 18 24 25 24 22 20 19 20 21 20 20 20 18 14 10 10 13 16 18 19 20 21 22 23 24 26 26 26 25 25 25 25 25 24 24 24 24 26 27 28 29 29 28 27 27 28 29 31 33 33 33 32 31 32 33 32
28 30 32 32 32 32 31 30 29 28 28 27 27 27 26 26 25 25 24 23 21 19 16 15 15 16 15 10 6 5 8 19 22 20 19 16 15 16 16 17 18 18 16 11 4 1 5 9 12 15 17 19 21 23 24 26 27 26 25 24 24 24 24 24 23 22 22 23 24 26 27 27 27 26 26 27 29 31 32 33 33 32 32 32 32 32
27 29 30 31 30 30 28 27 25 25 25 26 26 27 26 25 25 24 22 22 21 20 18 16 16 16 15 12 9 6 6 12 15 13 13 10 9 10 11 11 12 12 11 10 7 4 2 3 5 9 13 16 18 20 22 24 25 25 24 23 23 23 23 22 21 21 21 21 22 24 25 26 26 25 25 26 28 30 32 33 33 33 33 33 32 32
27 29 30 30 29 28 26 24 23 23 25 26 26 26 25 25 24 24 23 23 22 21 20 20 19 18 17 17 15 14 13 14 15 15 14 11 9 9 10 11 10 8 6 6 7 6 5 4 6 9 11 13 15 17 19 20 21 22 22 22 22 22 21 19 19 18 19 19 21 22 24 25 25 25 25 26 28 30 32 33 34 35 35 34 33 32
27 29 29 29 27 24 22 21 22 24 25 25 25 25 24 24 23 23 23 23 23 23 23 23 22 21 19 18 17 17 17 18 19 18 16 13 10 10 13 14 13 12 10 8 8 7 7 7 8 9 10 11 13 15 17 18 19 19 20 20 20 20 19 17 16 16 17 18 19 21 22 24 25 25 26 27 29 30 32 33 35 36 36 36 35 33
25 27 27 25 22 19 19 20 22 23 23 23 22 23 23 23 24 24 25 25 25 25 26 25 24 23 21 19 17 16 18 19 18 17 15 13 11 10 12 13 13 13 12 11 9 8 7 8 8 9 8 9 10 14 17 19 19 19 19 19 18 18 17 16 15 15 16 17 19 20 22 23 24 25 26 28 30 31 33 34 36 37 38 37 36 35
22 23 22 20 17 16 16 18 19 20 20 20 21 22 23 24 25 26 26 27 26 26 26 25 24 23 23 22 20 19 20 21 20 18 17 15 14 12 11 12 14 15 13 12 11 10 8 8 9 10 10 8 8 11 15 18 19 20 20 20 19 17 16 15 15 15 16 18 19 20 22 23 24 25 26 28 30 32 34 35 37 39 40 38 37 36
19 19 18 17 16 16 16 17 17 18 18 19 21 22 23 25 26 27 28 28 27 25 23 21 20 19 20 20 20 21 22 22 23 22 20 19 17 16 14 14 15 16 16 15 13 12 11 10 10 10 10 9 8 8 10 14 16 18 20 20 18 17 15 15 15 15 17 19 19 20 21 22 23 24 25 27 30 32 35 36 38 40 41 40 38 37
18 17 17 17 17 17 17 17 17 17 18 19 20 21 23 24 25 26 27 26 24 22 20 19 18 18 18 19 19 20 21 23 24 23 23 21 21 20 18 17 17 18 18 17 15 14 13 9 7 6 6 8 10 10 12 14 15 16 18 18 16 15 14 14 14 15 17 19 19 19 20 21 22 24 25 27 29 31 34 36 38 39 40 38 37 36
18 18 17 17 17 17 17 17 17 17 18 19 20 21 22 23 23 23 23 22 21 20 18 18 19 19 20 20 21 21 21 22 23 23 23 23 23 23 22 20 20 20 20 19 17 15 13 11 8 6 5 7 10 12 13 13 14 15 16 16 15 14 14 13 13 14 16 17 17 17 18 20 22 24 26 27 29 30 32 34 36 37 37 35 33 31
19 18 17 16 17 17 17 17 17 18 19 20 20 21 21 21 21 21 21 20 19 19 18 18 19 19 20 20 21 21 22 22 23 23 24 25 25 26 25 24 23 22 22 21 19 16 14 14 13 13 13 12 12 13 13 12 12 14 15 13 12 12 12 12 12 13 14 15 15 15 17 19 22 24 26 27 28 30 31 32 33 34 34 33 31 28
19 17 16 16 16 17 17 18 18 19 19 20 20 20 20 20 20 21 21 21 20 20 20 20 20 21 21 21 21 22 22 22 23 23 24 25 26 27 27 27 26 25 24 23 21 19 17 16 15 16 16 16 15 15 15 14 13 13 13 11 11 11 11 10 10 11 12 12 13 14 16 18 21 23 24 26 28 30 32 32 32 32 32 32 32 30
17 16 16 16 17 18 19 19 20 20 20 19 19 18 18 18 19 20 20 21 21 21 21 21 21 22 23 24 24 24 23 23 23 24 25 25 26 26 27 27 27 26 25 23 21 20 19 17 17 17 17 16 15 15 15 16 15 14 12 12 13 13 11 9 8 8 8 7 8 10 14 17 20 22 24 25 27 29 31 32 32 32 31 32 33 32
17 17 18 19 20 20 20 20 20 20 19 18 17 17 17 17 18 18 19 19 20 20 20 20 20 20 20 21 22 24 25 25 25 25 25 25 24 24 24 25 26 27 26 23 21 20 19 18 18 18 18 16 15 15 15 16 16 15 14 13 13 11 7 5 4 3 2 3 4 6 10 14 17 20 22 24 26 28 29 30 31 31 32 32 32 32
18 20 21 22 22 22 22 21 20 18 17 16 16 16 16 17 18 18 18 18 18 19 19 19 19 19 18 19 20 22 23 24 25 24 24 23 21 21 21 22 23 25 26 23 21 20 20 20 19 19 17 16 16 16 16 16 16 15 15 15 15 14 10 6 4 3 2 4 5 6 8 11 14 17 20 22 24 26 26 28 29 29 29 30 31 30
20 21 22 23 23 22 21 19 18 16 15 15 15 16 17 18 18 18 18 18 18 19 19 19 18 17 16 17 19 20 21 22 23 23 23 22 21 20 20 21 22 23 24 24 23 21 20 19 19 19 18 17 16 16 16 15 15 15 15 15 16 16 16 12 9 6 5 5 6 8 9 11 13 15 16 18 20 23 25 26 27 28 28 29 29 29
21 21 22 23 23 21 19 17 15 14 14 15 16 17 18 19 19 19 19 19 19 19 19 19 17 16 15 17 18 19 19 21 23 24 23 23 22 22 22 22 23 23 24 23 23 23 23 21 20 19 17 16 16 16 15 15 14 14 14 15 16 16 16 15 12 9 7 7 8 9 11 13 14 14 13 14 17 19 22 24 26 27 28 29 30 30
20 21 21 22 20 18 16 14 13 14 15 16 17 18 19 19 20 20 20 20 19 19 19 18 17 16 17 17 18 18 18 20 21 23 23 23 23 22 22 22 22 23 23 23 23 23 23 23 22 20 18 15 13 14 15 15 15 15 15 16 16 16 15 15 14 12 11 10 11 12 13 14 15 15 14 13 14 16 18 21 23 26 28 29 30 30
20 20 20 20 19 18 17 17 16 16 16 17 18 18 19 19 19 19 20 20 20 19 18 18 18 17 18 18 18 18 18 18 20 21 22 22 22 22 22 22 22 22 22 21 21 21 21 22 22 21 19 16 14 14 15 16 16 15 15 15 15 14 14 14 15 15 14 13 14 15 15 16 16 16 15 14 14 14 15 17 20 23 25 28 29 30
20 19 20 20 19 20 20 20 19 18 17 18 18 19 20 20 20 20 20 20 20 19 18 18 18 17 17 18 19 19 19 19 19 20 20 21 20 20 20 20 20 20 19 19 19 19 20 21 22 22 22 20 18 17 17 18 17 16 16 16 15 14 13 14 15 16 16 16 16 17 17 17 18 18 18 16 14 14 14 16 18 20 22 25 27 29
20 19 19 19 19 20 21 21 20 19 19 19 19 20 21 22 22 22 21 20 19 18 18 18 17 17 17 18 18 19 19 19 19 20 20 20 19 19 18 18 18 17 15 15 16 17 18 18 20 22 23 23 22 20 19 18 18 17 16 16 16 15 14 13 14 16 17 18 18 18 18 18 19 20 20 17 16 15 15 16 17 19 21 24 25 27
20 20 19 19 20 20 20 20 20 20 19 20 20 20 21 22 22 22 21 20 19 18 18 18 17 17 17 18 18 19 19 19 18 18 19 19 18 18 17 17 16 14 11 10 9 9 9 9 10 14 18 21 22 22 21 20 18 16 15 16 16 15 14 13 14 15 17 19 19 19 19 19 19 19 19 17 16 14 14 15 17 19 22 24 24 25
Wind_Direction
291 293 295 296 296 296 292 289 287 285 283 281 280 279 278 278 278 278 278 278 278 278 278 278 278 277 275 274 273 272 272 273 274 275 275 274 274 274 273 273 272 269 266 263 259 256 254 255 256 257 258 257 256 252 247 245 244 243 240 238 235 233 230 226 223 223 222 223 224 227 229 231 232 234 234 235 234 235 236 240 244 247 248 247 245 245
290 292 293 293 294 294 292 291 289 288 286 285 282 280 278 277 276 276 275 275 275 275 275 275 275 275 273 272 270 269 269 270 271 272 273 273 274 274 274 274 274 272 269 265 262 258 256 256 256 258 258 259 258 256 253 250 247 245 242 239 237 234 233 230 228 226 224 224 226 227 229 231 232 233 233 233 233 234 236 240 243 246 247 245 243 243
290 290 290 290 291 291 290 291 290 290 290 289 287 284 282 279 276 274 273 272 272 271 271 271 271 271 271 269 268 267 267 268 269 270 271 272 273 274 275 276 276 274 271 267 264 260 257 256 256 257 258 259 259 258 256 253 249 246 243 241 238 235 233 230 227 224 223 224 226 227 228 230 231 232 232 232 232 233 236 239 242 244 244 242 240 238
290 289 289 290 289 288 287 289 290 290 291 292 291 290 289 285 281 277 274 272 270 269 268 267 267 267 267 267 267 266 266 266 267 268 270 271 272 274 275 276 276 275 272 269 265 260 257 256 255 256 257 257 257 257 256 254 251 248 244 241 238 235 232 229 225 223 222 224 225 226 228 229 230 230 230 231 232 234 236 239 241 242 242 240 238 236
289 289 289 291 289 287 286 287 288 290 291 292 292 293 292 291 288 285 281 277 272 269 266 264 263 263 263 264 264 264 264 264 265 266 268 270 271 273 274 274 274 274 272 269 265 261 257 255 254 254 254 255 255 255 254 254 252 249 246 242 238 235 232 228 225 223 222 222 223 225 227 229 230 230 231 232 234 235 237 238 239 240 240 239 238 236
289 289 290 290 288 287 287 287 288 289 291 291 292 292 292 291 291 289 286 282 277 272 267 263 261 259 259 260 261 262 262 262 263 264 266 268 270 271 272 273 272 271 269 267 265 261 258 254 252 252 252 252 252 252 251 251 250 249 246 243 239 236 233 230 227 225 223 222 222 224 226 228 230 232 234 235 236 237 237 236 236 236 237 237 237 236
290 289 290 289 288 287 287 287 287 288 290 290 290 290 289 289 289 288 286 284 281 277 271 266 262 260 258 259 260 261 262 262 263 263 264 266 268 270 271 271 270 268 266 264 263 261 258 255 252 251 250 250 250 249 249 248 247 246 244 242 240 238 236 233 230 228 226 225 225 226 228 231 233 235 237 238 238 237 235 234 233 233 233 235 236 236
291 291 290 290 289 289 288 286 286 287 287 287 287 287 287 286 286 285 285 284 282 279 275 270 265 262 260 259 260 261 261 262 262 263 264 266 268 270 271 271 270 267 264 262 260 259 257 255 253 251 249 249 248 248 248 247 245 244 242 241 240 239 238 236 234 232 231 230 230 231 233 235 237 238 239 239 238 235 233 231 230 230 231 233 235 235
291 292 292 290 290 290 290 288 286 286 286 285 285 285 285 285 285 284 284 283 281 279 276 272 268 264 262 260 260 260 261 261 262 263 264 266 269 272 274 274 273 270 266 262 258 256 255 254 253 252 250 249 248 248 248 247 246 244 243 242 241 240 239 238 237 236 236 235 236 237 238 239 240 240 240 238 236 233 230 229 228 228 229 231 232 233
291 292 292 291 290 289 289 288 288 288 287 286 284 283 283 283 284 283 282 280 278 277 276 273 270 267 264 262 260 259 260 261 262 263 264 265 268 271 274 276 276 274 270 265 260 256 253 253 253 252 251 250 249 248 248 248 247 246 245 244 243 242 241 240 239 238 238 238 238 238 239 239 240 239 238 236 233 230 229 228 227 227 228 229 230 231
294 293 293 293 292 290 288 288 290 291 291 289 287 284 281 279 280 280 280 278 277 276 274 272 270 268 265 262 260 258 258 258 259 260 261 263 265 267 270 272 273 273 271 268 263 259 255 253 253 252 252 251 250 249 248 248 248 247 247 246 245 244 242 241 240 239 238 238 238 238 237 237 237 235 234 232 231 229 228 228 227 226 227 227 228 228
296 296 295 294 294 294 292 291 292 293 293 292 289 287 283 279 278 278 277 277 277 277 275 273 271 268 265 263 261 259 257 256 256 257 258 260 260 261 262 264 265 266 267 266 264 261 257 255 253 252 252 251 250 250 249 249 248 248 248 247 246 245 243 242 241 240 239 237 237 236 235 234 233 231 229 229 229 230 229 228 227 226 226 226 226 227
294 295 295 294 294 294 294 294 294 294 293 291 289 287 287 287 286 285 283 284 284 284 282 279 275 271 267 265 263 261 259 257 258 258 259 259 258 257 257 256 256 257 258 260 260 260 258 255 253 252 251 251 250 250 250 250 250 249 248 248 247 245 244 243 241 240 239 237 236 234 233 231 229 227 226 226 228 229 230 229 228 227 226 226 225 226
293 294 294 293 292 293 294 294 294 293 291 289 288 288 289 292 294 294 294 293 293 294 293 289 284 279 274 270 266 264 262 260 260 260 259 258 257 255 254 252 250 250 251 253 254 256 256 254 252 251 250 250 250 251 251 251 251 251 250 249 247 246 245 243 242 240 239 237 236 234 232 230 228 226 224 225 227 229 230 230 229 229 228 227 227 227
291 292 291 290 290 291 292 293 292 291 289 289 289 290 291 292 294 295 295 295 296 299 301 298 295 291 286 279 275 271 268 264 261 259 257 256 254 252 249 247 245 245 246 246 248 251 252 250 248 248 249 250 251 252 253 254 254 253 252 250 248 246 245 243 242 241 239 238 236 235 233 231 228 226 225 225 227 229 230 230 230 230 230 229 229 229
289 289 288 288 288 289 289 289 290 289 289 290 290 290 290 290 290 291 292 292 295 298 301 301 301 300 297 293 289 285 280 274 267 261 257 255 252 248 244 241 239 239 240 241 243 244 245 244 244 245 247 250 253 255 257 257 257 256 255 252 250 247 245 244 242 241 240 239 237 236 234 232 230 228 227 226 227 229 230 230 231 232 232 231 229 229
290 287 286 286 286 285 286 286 286 287 288 289 289 288 287 286 286 286 287 288 291 294 296 298 301 307 305 306 306 306 305 303 294 281 270 262 254 246 239 234 232 233 235 237 238 239 239 240 241 244 247 251 256 259 260 260 260 258 257 255 252 250 247 245 243 242 241 240 238 237 235 234 232 230 229 228 228 229 231 232 233 233 233 231 230 229
295 292 289 286 285 285 285 284 284 285 287 288 289 288 286 285 285 285 286 286 289 292 294 297 298 299 304 304 308 313 317 323 327 323 309 293 280 265 246 235 230 230 231 233 235 237 238 240 242 245 249 253 257 259 261 261 260 259 258 256 254 252 250 247 245 243 242 240 239 238 236 235 234 232 231 230 230 230 231 233 234 234 234 232 230 228
299 297 295 292 291 289 288 286 285 286 287 287 287 288 288 289 291 293 293 293 294 294 295 297 296 294 293 292 299 306 308 315 324 330 324 317 313 306 287 258 241 233 230 230 233 237 239 242 245 248 251 253 256 257 259 259 259 259 258 257 256 254 252 250 248 245 243 242 240 239 237 236 235 233 232 232 231 231 232 233 235 235 235 232 229 227
292 291 290 291 292 292 289 286 285 284 284 284 285 287 289 292 295 297 297 297 297 297 298 297 294 291 292 292 296 300 303 309 315 317 314 311 311 312 310 297 278 260 245 236 235 238 241 245 248 250 251 252 252 253 254 256 257 257 258 257 257 256 254 252 250 248 246 244 242 240 238 237 236 234 233 232 232 232 233 233 234 235 235 232 229 226
282 282 282 283 285 285 284 283 282 281 280 281 283 285 287 290 293 293 292 293 294 296 298 296 294 294 298 299 298 299 301 306 309 308 307 306 303 302 303 303 297 287 274 259 249 245 245 248 250 251 251 250 249 248 248 250 252 254 255 256 257 256 255 254 252 250 248 246 244 242 240 238 237 235 234 233 232 232 232 233 233 234 234 232 229 226
276 277 278 279 278 278 279 280 280 279 278 279 280 281 282 285 287 288 288 289 291 292 293 292 294 297 300 297 295 296 298 301 301 301 302 301 297 295 296 298 296 291 285 278 269 260 253 252 252 253 252 250 248 246 244 244 246 248 251 253 255 256 256 255 254 252 250 248 246 244 242 240 238 236 235 233 233 232 231 231 232 233 233 232 229 226
274 274 275 275 274 274 276 277 278 277 276 276 275 275 275 277 279 280 283 285 286 287 288 290 293 296 296 294 293 294 294 295 295 296 296 292 288 289 292 294 292 287 284 284 282 276 266 258 255 254 254 252 249 246 245 243 244 245 247 250 252 254 255 255 254 252 251 249 247 245 243 242 240 238 236 234 232 231 230 230 230 231 232 231 229 226
279 278 277 276 275 274 274 274 275 275 274 273 272 272 272 272 273 275 277 278 280 282 285 289 292 293 292 291 291 291 290 289 291 292 289 283 282 284 287 288 286 283 281 282 283 279 272 263 258 255 254 252 249 248 246 246 246 246 247 248 250 252 253 254 253 252 251 250 248 246 245 243 241 239 237 234 232 230 229 228 228 229 230 230 228 225
286 285 284 283 282 281 280 279 279 279 278 276 274 274 274 273 273 272 272 272 273 275 278 282 284 284 283 286 287 286 284 284 285 285 282 279 279 281 282 281 280 280 280 280 280 277 271 265 261 257 254 251 249 248 248 248 248 248 248 248 249 250 251 252 253 253 252 250 249 248 246 244 242 240 238 235 232 230 228 227 227 227 228 228 226 223
288 288 288 289 289 289 288 288 288 287 285 284 283 282 282 281 279 276 271 268 266 267 269 271 272 273 274 277 278 277 277 279 279 277 274 274 276 277 276 276 275 276 277 278 277 275 272 270 267 262 255 251 248 247 247 248 249 249 249 250 250 250 249 250 250 251 251 250 250 249 248 246 244 241 239 236 233 230 228 226 226 226 226 226 225 223
288 288 288 289 290 290 290 290 290 289 288 287 287 288 289 289 287 282 275 267 262 260 260 260 263 267 269 270 270 270 271 273 272 269 267 269 271 272 272 271 271 271 272 273 274 274 274 274 272 268 261 254 248 245 245 248 250 252 254 255 254 253 251 249 248 248 248 248 248 248 248 248 246 243 240 236 233 230 228 226 225 224 224 224 225 226
287 287 287 288 289 290 290 290 290 288 287 286 285 286 286 286 284 282 278 272 265 259 253 250 251 257 263 264 265 267 269 268 267 265 265 266 267 267 268 268 267 266 266 268 270 272 273 271 270 268 264 258 251 248 250 254 257 259 262 264 264 263 259 255 251 248 246 246 246 246 247 248 247 245 240 236 232 229 227 226 224 223 223 223 224 225
288 288 288 288 288 288 289 290 291 290 289 287 285 284 281 278 276 275 276 277 274 268 260 253 250 249 254 260 264 266 267 265 264 263 263 264 264 264 265 265 263 260 260 263 267 268 267 265 263 262 261 259 257 257 260 262 263 264 267 269 271 270 268 265 260 255 250 246 244 244 245 247 247 246 241 235 230 228 227 225 224 223 222 222 221 219
293 293 292 290 288 287 286 287 289 290 290 288 287 284 281 277 274 273 274 276 276 273 270 264 258 254 253 257 261 263 263 263 263 262 260 258 259 261 263 261 258 256 255 258 264 266 261 260 259 258 257 257 257 258 260 261 261 262 264 267 269 270 270 269 268 264 257 250 244 242 242 244 246 245 240 234 229 227 225 224 223 221 219 217 214 211
295 296 295 292 289 285 284 285 287 289 290 290 288 287 285 283 279 277 276 273 270 267 265 266 265 262 259 258 256 252 257 260 261 261 260 259 261 263 262 257 254 251 248 246 244 262 261 261 259 258 256 254 253 253 254 255 256 256 258 260 263 265 267 268 269 267 263 255 247 241 239 241 242 242 238 233 228 226 225 223 221 218 214 210 206 203
297 297 296 293 288 284 281 282 284 287 289 290 289 288 288 286 285 282 279 275 271 267 264 263 263 263 261 261 261 259 258 257 259 265 275 282 286 283 273 261 253 250 246 241 240 245 261 272 273 269 262 256 253 251 251 251 251 252 253 254 257 260 263 266 267 266 264 258 249 242 237 236 237 238 236 232 228 226 224 222 219 215 210 204 200 196
297 298 296 292 287 281 278 280 283 287 288 288 288 288 288 288 288 287 285 282 278 274 271 269 268 266 263 263 264 267 271 270 273 282 295 301 305 305 301 293 285 280 279 274 267 264 268 279 292 291 282 270 261 255 252 250 249 249 250 251 254 258 262 264 263 262 260 257 250 243 236 233 233 234 234 232 229 226 224 221 217 212 207 201 196 192
299 299 296 290 283 277 276 280 284 287 288 288 288 289 290 291 291 291 290 287 284 280 276 273 271 268 266 266 268 272 277 280 285 291 296 296 293 297 304 305 306 310 316 316 309 297 286 288 293 295 292 285 276 267 261 256 253 252 253 254 256 260 264 264 260 256 254 253 249 243 237 232 230 232 233 231 228 226 223 221 216 211 205 201 196 191
301 302 299 293 285 280 280 284 286 288 288 289 291 293 295 295 295 295 294 292 290 286 280 274 270 267 266 266 268 272 276 281 287 292 293 290 287 289 296 298 304 310 315 314 312 309 303 302 302 303 301 299 289 280 273 266 261 259 259 261 263 266 270 267 259 251 248 248 246 243 237 233 232 233 233 231 228 225 222 220 215 210 205 202 198 193
302 304 304 303 299 295 292 290 290 290 291 293 296 298 299 298 297 296 295 295 294 290 283 276 271 267 265 264 265 267 272 279 285 289 291 291 291 290 290 291 297 303 306 305 306 308 309 309 311 311 309 306 298 289 282 272 265 260 259 262 266 270 273 269 259 248 242 243 244 243 240 237 236 236 235 231 227 224 221 218 214 209 205 203 200 197
298 301 306 310 311 308 302 298 296 296 299 302 304 305 305 304 301 299 297 296 296 295 292 288 282 275 270 267 269 273 278 283 286 287 288 291 292 291 288 288 292 296 298 300 302 304 304 303 304 304 302 297 296 297 295 285 272 261 255 257 262 267 271 268 259 248 240 240 242 244 243 241 241 239 236 231 226 222 219 216 213 208 205 203 201 200
291 294 300 306 309 309 306 304 304 306 308 310 311 312 311 310 308 305 301 299 298 298 300 300 297 294 291 290 290 290 289 289 288 288 289 289 290 290 288 286 286 287 289 291 294 296 296 295 295 296 292 289 291 296 303 300 288 272 261 258 259 262 265 265 259 250 243 241 242 244 245 244 243 240 234 227 219 214 211 209 207 204 202 200 200 199
287 289 295 301 305 306 305 305 306 308 311 312 313 313 314 314 312 310 308 306 305 304 303 302 301 300 300 300 300 298 295 293 292 292 292 292 291 290 289 286 284 283 284 285 286 286 285 284 284 284 287 288 289 292 297 301 297 288 279 271 265 263 263 263 260 253 246 243 243 244 243 241 238 234 227 220 212 205 201 200 198 197 195 193 192 191
285 287 292 297 301 302 302 303 305 308 311 313 314 315 315 315 315 315 315 314 314 312 310 307 305 303 302 301 300 299 298 296 295 295 295 295 295 294 291 288 285 284 285 284 283 281 279 278 278 278 279 281 283 286 288 291 295 296 293 283 274 269 267 265 262 257 250 246 245 242 235 231 228 223 217 211 204 198 195 192 191 189 188 185 181 179
286 287 290 295 299 301 302 303 305 309 311 313 313 314 316 317 318 318 317 316 314 313 312 312 311 309 307 303 300 298 297 296 295 294 294 294 294 294 293 290 287 285 284 284 283 281 278 275 274 273 273 275 277 279 279 280 284 288 288 284 279 276 271 266 261 255 249 247 243 237 227 220 216 212 207 202 198 195 192 189 186 185 184 183 180 177
296 295 296 298 300 301 303 304 306 308 309 309 309 310 313 316 318 318 317 315 313 312 312 313 313 313 311 307 303 298 294 291 289 289 289 290 290 290 289 287 285 283 281 281 280 279 276 272 269 268 268 269 272 275 275 275 275 275 275 277 279 277 272 262 252 245 242 243 238 227 217 210 206 202 198 194 191 190 189 187 184 182 181 182 183 183
307 306 305 305 304 303 304 304 304 304 305 305 305 306 311 315 317 316 313 310 308 308 310 311 311 311 309 306 303 299 295 291 288 288 289 290 290 289 286 283 280 278 276 275 274 274 273 269 265 263 262 263 265 267 270 272 271 269 267 270 269 267 263 241 225 225 244 261 250 226 210 202 197 193 191 189 187 186 184 184 183 182 182 182 183 184
309 309 309 308 306 305 303 301 301 301 302 302 303 305 310 313 314 312 309 305 304 305 306 308 309 307 303 299 297 296 295 294 293 293 293 293 292 289 285 281 278 275 272 267 265 266 267 266 263 261 258 257 257 258 261 265 266 265 262 261 258 253 249 245 237 240 281 297 286 259 230 209 196 189 186 185 184 182 181 182 181 181 182 183 183 183
316 314 313 310 307 303 300 297 298 300 302 305 306 308 309 311 311 309 306 303 302 302 302 304 305 303 299 295 293 293 293 293 293 292 291 290 288 286 284 281 278 274 270 263 258 256 256 258 260 260 259 255 252 252 254 258 261 261 257 252 248 247 248 253 255 252 254 272 275 262 243 224 207 193 183 179 178 178 179 179 179 180 181 183 184 183
323 321 318 313 306 299 295 295 299 304 310 311 311 310 309 309 308 307 304 302 301 300 299 300 299 296 292 291 291 291 292 292 292 291 289 288 286 285 283 281 279 275 270 265 259 254 251 250 252 255 256 254 252 251 252 255 259 261 259 253 246 242 240 242 244 244 243 250 252 248 239 227 214 201 186 178 175 176 178 179 179 180 181 183 185 186
323 323 320 316 310 304 302 307 314 318 318 315 312 309 308 307 306 305 303 301 300 299 298 297 295 290 286 285 286 287 288 288 289 289 289 289 288 287 286 284 281 278 274 269 264 259 253 250 249 249 251 252 254 255 255 256 258 261 263 260 253 244 236 234 234 236 239 244 243 238 231 221 209 199 190 183 178 177 178 179 181 182 183 185 186 187
321 321 320 319 319 320 325 328 328 325 319 314 310 308 307 306 305 304 302 301 300 299 297 295 292 289 285 284 283 283 282 282 284 285 287 288 288 289 288 287 284 280 276 272 268 264 260 256 252 250 250 251 255 259 259 258 257 257 260 261 258 250 241 236 235 235 236 237 237 234 227 215 204 195 189 184 181 180 179 180 182 184 185 187 187 187
318 317 318 320 323 327 329 328 325 320 315 311 308 306 305 304 303 301 299 299 298 296 294 292 290 288 285 284 283 282 281 281 282 283 285 285 286 286 286 284 282 279 274 270 267 265 263 260 256 253 251 251 253 258 261 260 258 256 256 257 256 254 249 243 238 233 230 228 228 228 226 218 210 202 194 186 182 182 181 182 183 185 187 188 189 189
315 315 315 317 319 321 321 320 317 314 310 307 305 304 303 303 303 301 300 298 296 293 290 288 285 283 282 281 281 281 280 281 281 282 282 282 281 279 278 276 274 271 266 261 258 258 258 256 254 254 252 250 249 251 255 258 259 257 255 254 253 253 252 248 239 230 224 220 219 220 220 217 213 207 199 191 185 181 181 182 185 187 189 189 190 191
313 313 313 313 314 315 315 314 312 310 307 305 304 303 303 303 303 302 301 299 297 294 290 286 282 278 275 275 276 277 276 276 277 277 278 280 281 281 278 273 266 259 251 248 246 244 239 238 241 246 248 249 249 247 246 249 253 254 253 251 250 249 249 247 238 227 219 214 213 213 212 210 207 203 198 191 185 181 180 182 185 188 190 190 190 191